www.pogodaiklimat.ru

Погода и климат >> Архив погоды >> Россия >> Саратовская область >> Карабулак


ПОГОДА в Карабулаке

  • Прогноз погоды в Карабулаке
  • Монитор погоды в Карабулаке

АРХИВ ПОГОДЫ в Карабулаке

Время (UTC), дата Ветер
(напр.,м/с)
 
Видим.   Явления Облачность Т
(С)
Тd
(С)
f
(%)
Тe
(С)
Тes
(С)
Комфортность P
(гПа)
Po
(гПа)
Тmin
(С)
Tmax
(С)
R
(мм)
R24
(мм)
S
(см)
09 15.08 Ю 4 20 км ясно +26.0 +10.4 37 +27 +36 жарко 1015.1 981.1
12 15.08 ЮВ 2 20 км ясно +28.4 +13.8 41 +30 +38 жарко 1014.1 980.5
15 15.08 Ю 2 20 км ясно +27.5 +14.2 44 +30 +30 жарко 1013.8 980.1 +28.5
18 15.08 ЮВ 2 10 км 1/0
[Ci sp]
+22.7 +13.4 56 +26 +26 жарко 1014.9 980.6
21 15.08 Ю 3 10 км ясно +20.8 +13.5 63 +24 +24 комфорт 1015.3 980.8
00 16.08 Ю 3 10 км ясно +19.5 +13.0 66 +21 +21 комфорт 1015.1 980.4
03 16.08 Ю 3 20 км 10/0
[As op Ci sp]
+19.0 +12.8 67 +20 +20 1015.0 980.3 +18.5
06 16.08 Ю 3 20 км 9/0
[Ci sp]
+22.9 +13.9 57 +26 +32 жарко 1014.2 980.0
09 16.08 ЮВ 5 20 км 10/0
[Ci fib]
+28.2 +13.7 41 +30 +36 жарко 1012.2 978.6
12 16.08 Ю 4
{12}
20 км 9/0
[Ci sp]
+29.2 +14.2 40 +31 +35 жарко 1010.7 977.3
15 16.08 Ю 2 20 км 9/0
[Ci fib]
+26.3 +16.0 53 +30 +30 душно 1010.9 977.2 +29.9
18 16.08 Ю 3 10 км 8/0
[Ac und]
+23.6 +13.0 51 +26 +26 жарко 1012.0 977.9
21 16.08 ЮВ 2 10 км 6/0
[Ci sp]
+22.0 +12.3 54 +24 +24 комфорт 1012.2 977.9
00 17.08 ЮВ 3 10 км 10/0
[Ac und]
+21.2 +11.4 54 +23 +23 комфорт 1012.5 978.1
03 17.08 ЮВ 5 10 км 9/0
[Ac trans]
+20.0 +9.8 52 +21 +21 комфорт 1012.4 977.9 +20.0
06 17.08 Ю 3 20 км 9/6 1000 м
[Sc Ac trans]
+21.2 +11.8 55 +23 +25 комфорт 1013.1 978.7 +19.0
09 17.08 Ю 4 20 км 10/8 1000 м
[Sc Ac As]
+24.5 +14.0 52 +27 +27 жарко 1013.0 979.0
12 17.08 Ю 2 20 км 10/0
[Ac und]
+25.8 +12.6 44 +28 +30 жарко 1012.8 978.9
15 17.08 В 4 20 км 8/0
[Ac trans]
+24.9 +10.8 41 +26 +26 жарко 1011.5 977.5 +27.1
18 17.08 В 5 10 км 10/0
[Ac As]
+24.6 +8.4 36 +25 +25 комфорт 1011.0 977.0
21 17.08 ЮВ 2 10 км 9/0
[Ac und]
+22.6 +8.5 40 +24 +24 комфорт 1011.2 977.0
00 18.08 В 1 10 км слаб. ливневой дождь 9/9 1000 м
[Cb cap]
+20.4 +13.2 63 +24 +24 комфорт 1011.9 977.4
03 18.08 ЮВ 3 20 км 9/0
[Ac und Ci sp]
+20.2 +11.1 56 +22 +22 комфорт 1012.3 977.8 +19.4 0.0
06 18.08 ЮВ 3 20 км 9/0
[Ac trans]
+21.3 +11.6 54 +23 +26 комфорт 1013.0 978.6 +18.9
09 18.08 Ю 5 20 км 9/0
[Ac As]
+23.3 +15.3 61 +28 +30 душно 1013.6 979.4
12 18.08 Ю 5
{10}
20 км 9/5 1000 м
[Sc diur, vesp Ci sp]
+27.2 +12.1 39 +28 +30 жарко 1013.9 980.1
15 18.08 ЮВ 3
{10}
20 км 9/0
[Ac trans Ci sp]
+25.5 +10.1 38 +26 +27 жарко 1014.2 980.2 +28.2
18 18.08 ЮВ 3 10 км 9/0
[Ac As]
+22.9 +11.5 49 +25 +25 комфорт 1014.7 980.4
21 18.08 ЮВ 2 10 км 10/0
[Ac As]
+22.3 +11.8 51 +25 +25 комфорт 1016.5 982.1
00 19.08 В 2 10 км 8/0
[Ac trans]
+19.0 +13.2 69 +21 +21 комфорт 1016.5 981.7
03 19.08 ЮВ 3 20 км 8/0
[Ac trans Ci sp]
+20.9 +11.4 55 +23 +24 комфорт 1016.9 982.3 +18.8
06 19.08 Ю 4 20 км 6/0
[Ac trans Ci fib]
+24.5 +11.9 45 +26 +30 жарко 1017.3 983.1
09 19.08 Ю 3 20 км 9/0
[Ci sp]
+29.8 +11.1 31 +30 +39 жарко 1016.6 983.0
12 19.08 Ю 3 20 км 6/0
[Ci fib]
+31.7 +8.8 24 +31 +36 жарко 1016.1 982.7
15 19.08 Ю 2 20 км 5/0
[Ac trans Ci fib]
+29.4 +10.5 31 +30 +30 жарко 1016.2 982.6 +32.2
18 19.08 Ю 2 10 км 6/0
[Ac trans]
+26.5 +10.1 36 +27 +27 жарко 1017.2 983.2
21 19.08 З 3 10 км 6/0
[Ac trans]
+19.4 +11.8 61 +21 +21 комфорт 1018.4 983.6
00 20.08 С 4 10 км 5/0
[Ac trans]
+17.9 +16.1 89 +18 +18 1019.0 984.0
03 20.08 С 3 20 км 6/0
[Ci sp]
+17.6 +16.7 94 +18 +18 1019.3 984.3 +16.5
06 20.08 СВ 3 20 км 9/0
[Ac trans Ci fib]
+23.8 +17.3 67 +28 +32 душно 1019.2 984.9
09 20.08 В 2 20 км 3/0
[Ci sp]
+29.7 +16.0 44 +33 +45 душно 1018.1 984.5
12 20.08 ЮЗ 1 20 км 3/0
[Ci sp]
+31.8 +12.5 31 +32 +40 жарко 1017.2 983.8
15 20.08 С 5 20 км 9/0
[Ac As Ci sp]
+27.5 +16.6 51 +31 +31 душно 1017.3 983.5 +32.1
18 20.08 С 5 10 км 5/5 1000 м
[Sc diur, vesp]
+22.5 +17.7 74 +28 +28 душно 1018.8 984.4
21 20.08 С 3 10 км 5/5 1000 м
[Sc diur, vesp]
+20.2 +17.3 83 +24 +24 комфорт 1019.5 984.9
00 21.08 С 2 10 км 3/0
[Ci sp]
+17.6 +16.0 90 +18 +18 1020.2 985.2
03 21.08 С 3 20 км ясно +18.0 +15.3 84 +18 +19 1020.9 985.9 +17.1
06 21.08 СВ 5 20 км ясно +22.6 +15.9 66 +27 +31 душно 1021.5 987.0
09 21.08 С 4
{10}
20 км 4/4 600 м
[Cu hum]
+25.5 +15.1 53 +28 +33 жарко 1020.8 986.6
12 21.08 С 4
{10}
20 км 3/3 1000 м
[Cu hum]
+26.4 +13.9 46 +29 +32 жарко 1020.4 986.3
15 21.08 СВ 3 20 км 3/0
[Ci fib]
+25.0 +13.2 48 +27 +27 жарко 1020.5 986.3 +26.6
18 21.08 СВ 2 10 км ясно +20.2 +13.3 65 +23 +23 комфорт 1021.8 987.0
21 21.08 СВ 2 10 км ясно +17.5 +13.2 76 +18 +18 1021.8 986.7
00 22.08 С 2 10 км ясно +14.9 +12.6 86 +15 +15 1022.4 986.9
03 22.08 СВ 1 20 км ясно +16.0 +13.6 86 +17 +17 1022.7 987.3 +13.4
06 22.08 В 2 20 км 3/3 1000 м
[Cu hum]
+23.3 +15.5 62 +28 +33 душно 1021.8 987.4

 

Местоположение метеостанции Карабулак (Саратовская область, Россия): широта 52.33 долгота 46.37 высота над уровнем моря 302 м.

В архиве по умолчанию представлена погода в Карабулаке за последнюю неделю. Архивные данные за месяц целиком и за предыдущие месяцы, начиная с января 2011 года, Вы можете получить, выбрав интересующий диапазон дат из раскрывающегося списка и нажав кнопку "Ввод!".


*Определитесь, кто Вы:
робот инопланетянин человек

Внимание! Время в таблицах - всемирное. Для получения местного времени необходимо прибавить поправку, которая равна 4 ч.

Смотрите также архив погоды в соседних городах и на ближайших метеорологических станциях:

Погода в Петровске (Саратовская область, Россия) (66 км)
Погода в Маркс (Саратовская область, Россия) (74 км)
Погода в Радищево (Пензенская область, Россия) (80 км)
Погода в Саратове (Саратовская область, Россия) (88 км)
Погода в Саратове ЮВ (Саратовская область, Россия) (88 км)
Погода в Октябрьском Городке (Саратовская область, Россия) (100 км)
Погода в Кондоле (Пензенская область, Россия) (103 км)
Погода в Балаково (Саратовская область, Россия) (105 км)
Погода в Аткарске (Саратовская область, Россия) (105 км)
Погода в Городище (Пензенская область, Россия) (115 км)

Пояснения к столбцам:

Ветер - указаны скорость ветра в м/с - средняя за 10 мин, порывы в срок и между сроками (в фигурных скобках) и направление, откуда дует ветер: С - северный, СВ - северо-восточный, В - восточный, ЮВ - юго-восточный, Ю - южный, ЮЗ - юго-западный, З - западный, СЗ - северо-западный.
Видимость - горизонтальная дальность видимости в метрах или километрах. При видимости от 1 до 10 км при отсутствии осадков обычно наблюдается дымка, при ухудшении видимости до 1 км и менее - туман. В сухую погоду видимость может ухудшаться дымом, пылью или мглою.
Явления - указаны атмосферные явления, наблюдавшиеся в срок или в последний час перед сроком; фигурными скобками обозначены явления, наблюдавшиеся между сроками (за 1-3 часа до срока); квадратными скобками обозначены град или гололедные отложения с указанием их диаметра в мм.
Облачность - указаны через наклонную черту общая и нижняя облачность в баллах и высота нижней границы облаков в метрах; квадратными скобками обозначены формы облаков: Ci - перистые, Cs - перисто-слоистые, Cc - перисто-кучевые, Ac - высококучевые, As - высокослоистые, Sc - слоисто-кучевые, Ns - слоисто-дождевые, Cu - кучевые, Cb - кучево-дождевые. Подробнее классификацию облаков см. в Атласе облаков (PDF).
T - Температура воздуха - температура, измеренная на высоте 2 м над землей.
Td - Температура точки росы - температура, при понижении до которой содержащийся в воздухе водяной пар достигнет насыщения.
f - Относительная влажность воздуха - влажноcть воздуха, измеренная на высоте 2 м над землей.
Te - Эффективная температура - температура, которую ощущает одетый по сезону человек в тени. Характеристика душности погоды. При расчете учитывается влияние влажности воздуха и скорости ветра на теплоощущения человека.
Tes - Эффективная температура на солнце - температура, которую ощущает человек, с поправкой на солнечный нагрев. Характеристика знойности погоды. Зависит от высоты солнца над горизонтом, облачности и скорости ветра. Ночью, в пасмурную погоду, а также при ветре 12 м/с и более поправка равна нулю.
P - Атмосферное давление - приведенное к уровню моря атмосферное давление.
Po - Атмосферное давление - измеренное на уровне метеостанции атмосферное давление.
Tmin - Минимальная температура - минимум температуры воздуха на высоте 2 м над землей.
Tmax - Максимальная температура - максимум температуры воздуха на высоте 2 м над землей.
R - Количество осадков - Количество выпавших осадков за период времени, мм. При наведении курсора мыши на число - период времени, за который выпало указанное количество осадков.
R24 - Количество осадков - Количество выпавших осадков за 24 часа, мм.
S - Снежный покров - Высота снежного покрова, см. При наведении курсора мыши на число - состояние снежного покрова и степень покрытия местности в баллах.